Probability
11 11 11 10 10 10 10 9 7 6 5 4 4 4 4 4 4 5 6 4 1 0 0 0 0 0 0 0 0 0 1 1 1 0 0 0 0 0 0 0 0 0 0
10 10 9 9 9 9 10 9 8 7 5 5 4 4 4 4 5 6 6 4 1 0 0 0 0 0 0 0 0 0 0 0 0 0 0 0 0 0 0 0 0 0 0
7 7 7 7 7 9 10 9 9 7 6 5 4 4 3 3 3 4 4 2 1 0 0 0 0 0 0 0 0 0 1 1 1 1 1 1 1 0 0 0 0 0 0
5 5 5 5 5 7 9 8 7 7 6 6 4 3 3 2 2 2 2 1 0 0 0 0 0 0 0 0 0 0 1 2 2 2 1 2 2 1 0 0 0 1 1
2 3 3 3 3 4 6 6 6 6 6 5 4 3 2 2 2 2 2 1 0 0 0 0 0 0 0 0 0 0 1 2 3 3 3 3 4 3 2 1 1 2 2
2 2 2 2 3 3 4 5 6 5 5 5 4 3 1 1 1 1 2 1 0 0 0 0 0 0 0 0 0 0 0 1 1 2 3 4 4 4 4 3 3 4 4
3 3 3 2 3 4 4 5 6 6 6 6 5 3 2 1 0 0 0 0 0 0 0 1 1 0 0 0 0 0 0 0 0 1 1 1 2 3 4 3 4 4 5
5 5 5 5 5 6 6 6 6 6 6 6 6 4 2 1 0 0 0 0 0 0 0 1 2 1 0 0 0 1 1 0 0 0 0 0 0 1 2 2 3 3 3
6 6 6 7 8 8 7 6 6 6 6 6 5 3 1 0 0 0 0 0 0 0 1 1 2 1 0 0 0 1 1 1 0 0 0 0 0 0 1 1 1 1 1
7 7 7 9 10 10 8 7 7 6 6 5 4 3 1 0 0 0 0 0 0 1 1 1 1 1 0 0 0 1 1 1 1 1 1 1 0 0 0 0 0 0 0
8 8 8 8 10 11 10 8 7 6 5 4 3 3 1 0 0 0 0 0 1 1 0 0 0 0 0 0 0 0 0 1 2 2 2 2 1 0 0 0 0 0 0
6 7 7 7 8 10 11 9 8 6 4 3 3 3 2 1 0 0 0 0 0 0 0 0 0 0 0 0 0 0 0 0 1 2 2 2 2 1 1 0 0 0 0
4 4 5 5 6 7 9 9 8 6 5 4 3 3 3 2 1 0 0 0 0 0 0 0 0 0 0 0 0 0 0 0 0 1 1 1 1 1 1 0 0 0 0
2 2 2 3 4 5 7 8 7 6 4 4 4 4 3 3 2 1 0 0 0 0 0 0 0 0 0 0 0 0 0 0 0 0 0 0 0 1 1 0 0 0 0
2 1 0 1 2 3 5 7 6 4 3 3 4 4 4 3 2 1 0 0 0 0 0 0 0 0 0 0 0 0 0 0 0 0 0 0 0 0 0 0 0 0 0
1 0 0 0 0 2 4 6 5 3 1 1 3 3 3 2 1 0 0 0 0 0 0 0 0 0 0 0 0 0 0 0 0 0 0 0 0 0 0 0 0 0 0
0 0 1 0 0 2 3 5 5 3 1 1 1 1 2 1 0 0 0 0 0 0 0 0 0 0 0 0 0 0 0 0 0 0 0 0 0 0 0 0 0 0 0
0 0 0 0 0 1 2 3 4 3 3 2 1 0 0 0 0 0 0 1 1 0 0 0 0 0 0 0 0 0 0 0 0 0 0 0 0 0 0 0 0 0 0
0 0 0 0 0 0 1 1 2 3 3 3 2 1 1 0 0 0 1 2 1 0 0 0 0 0 0 0 0 0 0 0 0 0 0 0 0 0 0 0 0 0 0
0 0 0 0 0 0 0 0 1 2 3 3 3 3 2 1 1 0 1 1 1 0 0 0 0 0 0 0 0 0 0 0 0 0 0 0 0 0 0 0 0 0 0
0 0 0 0 0 0 0 0 0 1 2 2 2 2 2 2 2 1 1 1 0 0 0 0 0 0 0 0 0 0 0 0 0 0 0 0 0 0 0 0 0 0 0
0 0 0 0 0 0 0 0 0 0 1 1 1 1 1 3 3 2 1 1 1 1 1 0 0 0 0 0 0 0 0 0 0 0 0 0 0 0 0 0 0 0 0
0 0 0 0 0 0 0 0 0 0 0 0 0 0 1 2 2 2 2 1 2 2 2 1 0 0 0 0 0 0 0 0 0 0 0 0 0 0 0 0 0 0 0
0 0 0 0 0 0 0 0 0 0 0 0 0 0 0 1 1 1 1 0 1 2 2 1 0 0 0 0 0 0 0 0 0 0 0 0 0 0 0 0 0 0 0
0 0 0 0 0 0 0 0 0 0 0 0 0 0 0 0 0 0 0 0 0 1 1 1 0 0 0 0 0 0 0 0 0 0 0 0 0 0 0 0 0 0 0
0 0 0 0 0 0 0 0 0 0 0 0 0 0 0 0 0 0 0 0 0 0 0 0 0 0 0 0 0 0 0 0 0 0 0 0 0 0 0 0 0 0 0
Wind_Speed
3 4 4 4 4 4 4 4 4 4 4 5 5 5 5 5 5 4 5 5 5 5 4 5 4 4 3 3 3 3 4 4 4 3 2 2 2 2 1 1 1 1 2
3 4 4 4 5 4 4 4 4 4 4 5 5 5 5 5 5 5 5 5 5 6 5 5 5 3 4 4 3 4 3 4 4 4 3 2 3 3 2 2 2 2 1
2 3 4 4 5 5 4 4 4 4 5 5 5 5 5 6 5 5 5 6 6 6 5 5 5 5 5 4 4 4 3 3 3 4 3 2 2 2 2 2 3 2 2
2 3 4 4 4 4 4 4 4 4 5 5 5 5 5 6 6 5 5 5 5 5 5 5 5 5 5 4 4 4 4 4 3 3 3 3 2 2 2 3 3 3 3
2 3 4 4 4 4 4 4 4 4 4 4 4 5 5 5 4 5 5 5 5 5 5 5 5 4 4 4 3 3 4 3 3 3 4 3 3 3 3 3 3 3 3
3 3 3 4 4 4 4 4 4 3 3 4 4 4 4 3 1 2 4 5 6 6 5 5 4 5 5 5 4 4 4 5 5 4 4 4 5 4 3 3 3 3 3
3 3 4 4 4 4 4 4 3 4 4 4 4 4 4 2 2 3 4 5 5 5 5 5 4 4 4 5 6 6 6 6 6 6 6 5 5 4 4 5 4 4 4
4 4 4 4 4 4 4 4 4 4 4 4 4 4 3 3 2 3 4 6 5 5 5 5 5 4 4 4 5 5 5 5 5 6 6 5 4 4 4 5 5 5 4
3 4 4 4 4 4 5 4 4 4 4 4 4 4 4 4 2 3 4 5 4 5 5 4 4 4 2 3 5 5 5 4 3 4 4 4 3 3 3 3 4 4 4
4 4 4 4 5 5 5 5 4 4 4 4 4 4 5 4 2 4 6 4 4 4 3 3 3 3 2 3 5 5 6 5 4 4 4 4 4 4 5 5 4 5 4
3 3 3 4 5 5 4 4 4 4 4 4 4 4 4 4 3 4 5 4 4 4 3 3 2 1 2 3 5 5 4 5 4 4 3 3 3 3 4 4 4 5 5
2 3 3 3 3 3 4 4 4 4 4 4 4 4 3 3 3 3 4 5 4 4 3 3 1 1 2 4 4 4 4 4 3 3 3 3 3 3 3 4 5 5 5
2 2 2 3 3 4 4 4 4 4 4 4 3 3 3 2 2 3 5 5 5 4 3 2 2 3 4 4 4 4 4 4 3 3 4 3 3 3 3 2 4 4 5
3 3 3 3 2 3 3 3 4 4 4 4 4 4 3 3 2 2 3 3 4 4 2 2 3 3 3 3 3 3 3 3 3 3 3 3 2 2 2 2 2 3 3
3 3 3 3 3 3 3 2 4 3 3 4 4 4 4 4 2 2 3 2 2 2 2 2 2 2 2 2 2 2 2 2 3 3 3 2 2 2 2 2 2 3 3
2 2 2 2 2 2 3 2 1 3 2 4 4 4 3 3 2 3 3 2 2 2 3 2 2 2 2 2 2 2 2 2 2 2 3 3 3 3 3 3 3 3 4
3 3 2 2 2 3 2 3 2 2 2 3 3 3 3 2 3 3 3 3 3 4 3 2 2 2 2 2 2 2 2 2 2 2 3 3 3 3 3 3 3 3 3
3 3 3 3 3 3 3 3 3 3 2 2 2 3 2 2 2 3 3 3 3 3 2 2 2 2 2 2 2 2 2 2 2 2 2 3 3 3 3 3 3 3 3
3 2 3 3 2 2 2 3 3 3 3 2 2 2 3 3 3 3 4 3 3 2 2 2 1 1 1 1 1 2 2 2 3 2 2 3 3 3 3 3 3 3 3
3 3 3 3 2 2 2 2 2 2 3 2 2 2 2 2 2 3 3 2 2 2 2 2 1 1 1 1 1 1 2 2 2 2 2 3 3 2 3 3 3 3 2
3 3 3 3 3 3 2 2 2 2 2 2 2 1 2 3 3 3 3 3 3 3 2 2 2 1 1 1 1 2 2 2 2 2 2 2 3 3 3 3 3 3 2
3 2 3 3 3 3 2 2 2 2 2 2 1 1 3 3 2 2 2 2 2 2 2 2 2 1 1 1 2 2 2 2 2 2 2 2 2 3 3 3 2 2 2
3 3 3 3 3 3 3 3 2 2 2 2 1 1 2 2 2 2 2 1 1 1 1 1 1 1 1 1 1 2 2 2 2 3 3 2 2 2 3 3 3 3 2
3 4 4 3 3 3 3 3 2 2 2 2 2 1 1 1 1 1 1 1 1 1 1 1 1 2 2 1 1 1 2 2 3 2 3 3 2 2 2 2 2 3 3
3 3 3 3 3 3 3 3 3 3 2 2 2 1 1 1 1 1 1 1 1 1 1 1 1 1 2 1 1 1 1 2 3 2 2 2 2 2 2 2 2 2 2
3 3 3 3 3 3 3 3 3 3 2 2 1 1 1 1 1 1 1 1 1 1 1 1 1 1 1 1 1 1 1 1 1 3 2 1 1 1 2 2 2 2 2
Wind_Direction
206 206 202 205 210 213 212 220 221 220 218 220 220 218 219 221 222 221 228 226 234 233 228 237 238 238 238 238 236 243 250 258 266 275 266 250 244 260 217 252 248 229 166
219 210 201 205 205 212 213 219 222 219 221 222 219 221 222 223 223 227 230 230 236 241 238 238 238 227 236 239 235 239 243 252 259 265 259 247 253 260 263 247 245 243 240
219 216 210 206 208 215 220 216 216 219 219 217 214 221 225 226 226 231 234 237 239 240 241 240 241 234 234 232 232 236 239 245 251 254 260 258 252 242 256 252 247 246 249
229 222 217 213 213 218 222 220 222 224 223 220 219 221 230 233 231 234 237 239 240 240 239 242 241 239 241 237 236 238 240 241 242 244 249 245 238 235 242 244 246 235 242
241 232 223 217 214 215 219 218 219 226 232 229 227 226 230 231 234 238 236 240 240 240 240 238 239 245 260 258 259 252 244 243 239 238 242 245 238 224 233 241 250 249 238
250 243 227 220 215 214 215 215 216 217 228 229 230 231 232 229 204 254 259 243 243 243 243 243 235 225 228 232 243 258 263 253 247 239 242 245 245 239 237 243 246 251 248
262 254 237 224 217 215 210 206 212 218 224 231 231 234 237 223 185 227 247 248 245 246 248 246 242 240 236 238 223 225 234 246 257 260 251 250 257 248 239 238 240 253 262
262 259 251 230 220 217 214 211 219 225 225 233 233 233 241 240 209 226 243 243 244 244 244 245 244 245 241 249 245 240 240 238 238 246 258 265 268 261 245 245 244 246 255
255 257 253 239 223 221 220 218 222 226 227 233 235 231 237 236 211 229 242 243 245 247 248 249 251 249 237 238 246 244 244 242 230 242 273 282 291 278 262 242 233 229 241
272 267 260 248 227 223 224 222 224 228 229 233 235 231 232 239 213 225 238 242 246 248 250 249 245 257 255 233 242 243 247 252 249 232 237 240 242 226 223 236 232 235 244
285 280 268 256 237 225 221 218 218 227 235 237 236 235 235 239 214 211 233 249 247 249 249 250 242 187 245 244 254 254 265 273 258 251 246 242 235 231 224 233 238 240 242
285 276 267 258 243 223 217 219 221 221 229 237 237 236 239 234 232 206 218 250 270 250 248 249 247 187 241 252 250 261 268 267 259 249 246 246 243 240 240 237 241 246 255
276 275 270 260 247 229 219 215 219 222 224 232 236 239 241 242 220 202 212 234 255 252 252 263 256 233 237 239 239 243 242 244 244 246 247 252 256 254 249 247 247 250 255
278 274 264 252 248 235 225 222 220 223 227 232 236 237 237 233 233 221 217 221 230 238 237 215 215 218 235 250 243 231 238 246 248 250 258 263 266 256 245 243 251 249 247
270 267 262 252 249 251 236 235 237 239 248 246 241 240 236 233 236 260 248 234 241 250 249 231 230 226 237 246 250 247 245 241 241 251 254 253 253 253 254 251 247 247 252
265 269 266 253 241 243 242 222 208 240 268 270 272 271 255 252 233 210 217 223 224 221 224 217 225 235 243 254 262 263 260 256 258 256 254 253 249 246 249 254 247 247 250
260 265 258 253 239 233 236 236 230 218 218 235 238 252 262 235 196 195 192 186 188 194 213 224 228 239 253 266 272 273 276 273 267 258 255 255 255 254 252 251 250 245 249
259 262 260 250 242 236 235 238 235 236 237 224 201 209 222 195 186 187 178 175 183 197 228 240 244 244 250 256 271 281 283 283 272 261 257 259 257 254 256 253 251 251 254
264 262 257 253 243 237 235 234 233 230 236 234 222 187 186 182 173 167 176 196 201 213 231 242 254 259 260 265 269 275 278 277 277 277 270 264 261 262 262 265 259 252 259
254 272 272 256 243 238 232 230 232 230 225 225 228 223 182 181 184 175 190 209 213 217 230 244 252 252 249 253 264 275 276 273 273 278 285 283 278 270 264 267 258 245 251
246 237 249 252 246 243 239 236 238 235 231 230 229 214 206 204 199 195 197 209 218 217 220 230 238 244 249 257 259 266 273 276 280 281 280 282 283 281 271 262 256 252 248
243 240 242 245 245 245 250 250 243 232 224 228 228 182 183 209 205 202 201 208 222 227 223 224 223 225 231 238 248 257 265 273 277 282 281 279 277 277 280 277 256 249 250
237 238 241 245 242 239 240 238 232 229 225 223 215 207 202 208 201 203 200 203 208 205 208 214 214 215 225 245 257 260 260 261 265 272 275 272 274 274 272 273 264 250 250
236 236 238 238 235 237 239 232 224 222 220 212 207 211 209 206 205 208 204 194 196 191 191 201 206 203 205 223 241 260 279 296 286 260 261 265 271 273 272 275 277 260 255
236 240 239 234 233 239 238 232 224 217 212 206 196 184 187 190 188 194 193 173 183 182 174 174 182 189 194 205 223 266 351 335 315 297 262 252 259 273 271 274 278 277 267
234 234 234 231 229 233 234 229 221 211 203 199 195 184 182 188 188 190 192 177 169 168 166 168 167 172 189 196 178 53 29 344 316 308 286 245 245 265 279 273 272 275 277